Voltar ao catálogo

STARLINK-4597

AtivoComunicaçõesVLEO
NORAD 53640·PAYLOAD·🇺🇸 United States

Lançado Aug 28, 2022 de Cape Canaveral Space Force Station

Loading…

Próximas Passagens (próximas 24 horas)

TLE

AtualizadoSource: CelesTrak SupGP

Época: Sep 14, 2026, 21:11 UTC

1 53640C 22104BE  26257.88312500  .00015912  00000+0  47025-3 0  2571
2 53640  53.1590  87.9017 0001088 127.3199 335.8708 15.34374922    19

Acompanhe STARLINK-4597 em tempo real com AllMySat

Download on the App Store